contact:dominique.lefevre@mio.osupytheas.fr, maurice.libes@osupytheas.fr, didier.mallarino@osupytheas.fr
Project:EMSO http://www.emso-fr.org/EMSO-France
Depth: 2436.0 m
Title:EMSO Ligure Ouest : Data MII capteur OXYGEN
DateTime,Latitude,Longitude,Optode-Type,Optode_Serial,Oxygen,Saturation_Oxygen,Temperature
DateTime,Latitude,Longitude,Optode-Type,Optode_Serial,µmol.l-1,%,degC
2019-07-19T00:00:07,42.805,6.029,4330,1995,192.895,58.997,13.293
2019-07-19T00:03:07,42.805,6.029,4330,1995,192.830,58.977,13.293
2019-07-19T00:06:07,42.805,6.029,4330,1995,192.940,59.009,13.292
2019-07-19T00:12:07,42.805,6.029,4330,1995,192.885,58.992,13.292
2019-07-19T00:15:07,42.805,6.029,4330,1995,192.900,58.997,13.292
2019-07-19T00:18:07,42.805,6.029,4330,1995,192.899,58.999,13.294
2019-07-19T00:21:07,42.805,6.029,4330,1995,192.821,58.973,13.293
2019-07-19T00:24:07,42.805,6.029,4330,1995,192.823,58.976,13.294
2019-07-19T00:27:07,42.805,6.029,4330,1995,192.864,58.987,13.293
2019-07-19T00:30:07,42.805,6.029,4330,1995,192.784,58.963,13.293
2019-07-19T00:33:07,42.805,6.029,4330,1995,192.785,58.964,13.293
2019-07-19T00:36:07,42.805,6.029,4330,1995,192.765,58.957,13.293
2019-07-19T00:39:07,42.805,6.029,4330,1995,192.786,58.964,13.294
2019-07-19T00:42:07,42.805,6.029,4330,1995,192.834,58.978,13.293
2019-07-19T00:45:07,42.805,6.029,4330,1995,192.824,58.975,13.293
2019-07-19T00:48:07,42.805,6.029,4330,1995,192.762,58.956,13.293
2019-07-19T00:51:07,42.805,6.029,4330,1995,192.803,58.967,13.292
2019-07-19T00:54:07,42.805,6.029,4330,1995,192.730,58.946,13.293
2019-07-19T00:57:07,42.805,6.029,4330,1995,192.791,58.964,13.292
2019-07-19T01:00:07,42.805,6.029,4330,1995,192.773,58.958,13.292
2019-07-19T01:03:07,42.805,6.029,4330,1995,192.832,58.976,13.292
2019-07-19T01:06:07,42.805,6.029,4330,1995,192.799,58.967,13.293
2019-07-19T01:09:07,42.805,6.029,4330,1995,192.864,58.985,13.292
2019-07-19T01:12:07,42.805,6.029,4330,1995,192.824,58.973,13.292
2019-07-19T01:15:07,42.805,6.029,4330,1995,192.889,58.993,13.292
2019-07-19T01:18:07,42.805,6.029,4330,1995,192.930,59.005,13.291
2019-07-19T01:21:07,42.805,6.029,4330,1995,192.884,58.991,13.291
2019-07-19T01:24:07,42.805,6.029,4330,1995,192.868,58.987,13.292
2019-07-19T01:27:07,42.805,6.029,4330,1995,192.843,58.978,13.291
2019-07-19T01:30:07,42.805,6.029,4330,1995,192.877,58.989,13.291
2019-07-19T01:33:07,42.805,6.029,4330,1995,192.880,58.990,13.291
2019-07-19T01:36:07,42.805,6.029,4330,1995,192.906,58.998,13.292
2019-07-19T01:39:07,42.805,6.029,4330,1995,192.931,59.006,13.292
2019-07-19T01:42:07,42.805,6.029,4330,1995,192.912,59.001,13.292
2019-07-19T01:45:07,42.805,6.029,4330,1995,192.871,58.986,13.291
2019-07-19T01:48:07,42.805,6.029,4330,1995,192.893,58.994,13.292
2019-07-19T01:51:07,42.805,6.029,4330,1995,192.893,58.994,13.292
2019-07-19T01:54:07,42.805,6.029,4330,1995,192.924,59.003,13.291
2019-07-19T01:57:07,42.805,6.029,4330,1995,192.936,59.007,13.291
2019-07-19T02:00:07,42.805,6.029,4330,1995,192.952,59.010,13.290
2019-07-19T02:03:07,42.805,6.029,4330,1995,193.028,59.035,13.291
2019-07-19T02:06:07,42.805,6.029,4330,1995,193.028,59.033,13.290
2019-07-19T02:09:07,42.805,6.029,4330,1995,192.974,59.019,13.292
2019-07-19T02:12:07,42.805,6.029,4330,1995,193.012,59.030,13.291
2019-07-19T02:15:07,42.805,6.029,4330,1995,192.991,59.024,13.292
2019-07-19T02:18:07,42.805,6.029,4330,1995,192.985,59.022,13.292
2019-07-19T02:21:07,42.805,6.029,4330,1995,192.943,59.010,13.292
2019-07-19T02:24:07,42.805,6.029,4330,1995,192.949,59.012,13.292
2019-07-19T02:27:07,42.805,6.029,4330,1995,192.958,59.015,13.293
2019-07-19T02:30:07,42.805,6.029,4330,1995,192.958,59.015,13.292
2019-07-19T02:33:07,42.805,6.029,4330,1995,192.959,59.015,13.292
2019-07-19T02:36:07,42.805,6.029,4330,1995,192.994,59.025,13.292
2019-07-19T02:39:07,42.805,6.029,4330,1995,192.992,59.025,13.292
2019-07-19T02:45:07,42.805,6.029,4330,1995,193.060,59.040,13.288
2019-07-19T02:48:06,42.805,6.029,4330,1995,193.063,59.041,13.288
2019-07-19T02:51:07,42.805,6.029,4330,1995,193.063,59.045,13.290
2019-07-19T02:54:07,42.805,6.029,4330,1995,193.071,59.048,13.291
2019-07-19T02:57:07,42.805,6.029,4330,1995,193.077,59.049,13.291
2019-07-19T03:00:07,42.805,6.029,4330,1995,193.010,59.028,13.291
2019-07-19T03:03:07,42.805,6.029,4330,1995,193.060,59.045,13.291
2019-07-19T03:06:07,42.805,6.029,4330,1995,193.038,59.038,13.292
2019-07-19T03:09:07,42.805,6.029,4330,1995,192.948,59.010,13.291
2019-07-19T03:12:07,42.805,6.029,4330,1995,193.004,59.028,13.292
2019-07-19T03:15:07,42.805,6.029,4330,1995,192.931,59.006,13.292
2019-07-19T03:18:06,42.805,6.029,4330,1995,192.938,59.008,13.292
2019-07-19T03:21:06,42.805,6.029,4330,1995,192.940,59.009,13.292
2019-07-19T03:24:06,42.805,6.029,4330,1995,193.076,59.050,13.291
2019-07-19T03:27:06,42.805,6.029,4330,1995,193.087,59.054,13.292
2019-07-19T03:30:06,42.805,6.029,4330,1995,193.042,59.041,13.293
2019-07-19T03:33:06,42.805,6.029,4330,1995,193.071,59.050,13.292
2019-07-19T03:36:06,42.805,6.029,4330,1995,193.026,59.037,13.293
2019-07-19T03:39:06,42.805,6.029,4330,1995,193.040,59.041,13.293
2019-07-19T03:42:06,42.805,6.029,4330,1995,193.025,59.036,13.293
2019-07-19T03:45:06,42.805,6.029,4330,1995,193.010,59.032,13.293
2019-07-19T03:48:06,42.805,6.029,4330,1995,192.943,59.011,13.293
2019-07-19T03:51:06,42.805,6.029,4330,1995,192.966,59.018,13.293
2019-07-19T03:54:06,42.805,6.029,4330,1995,193.025,59.036,13.292
2019-07-19T03:57:06,42.805,6.029,4330,1995,192.984,59.024,13.293
2019-07-19T04:00:06,42.805,6.029,4330,1995,193.042,59.040,13.292
2019-07-19T04:03:06,42.805,6.029,4330,1995,193.045,59.042,13.292
2019-07-19T04:06:06,42.805,6.029,4330,1995,193.035,59.039,13.293
2019-07-19T04:09:06,42.805,6.029,4330,1995,193.007,59.030,13.292
2019-07-19T04:12:06,42.805,6.029,4330,1995,192.960,59.015,13.292
2019-07-19T04:15:06,42.805,6.029,4330,1995,192.982,59.021,13.292
2019-07-19T04:18:06,42.805,6.029,4330,1995,193.049,59.043,13.292
2019-07-19T04:21:06,42.805,6.029,4330,1995,192.999,59.027,13.292
2019-07-19T04:24:06,42.805,6.029,4330,1995,192.947,59.011,13.292
2019-07-19T04:27:06,42.805,6.029,4330,1995,192.959,59.014,13.291
2019-07-19T04:30:06,42.805,6.029,4330,1995,193.007,59.028,13.291
2019-07-19T04:33:06,42.805,6.029,4330,1995,192.973,59.017,13.291
2019-07-19T04:36:06,42.805,6.029,4330,1995,192.979,59.020,13.291
2019-07-19T04:39:06,42.805,6.029,4330,1995,193.004,59.026,13.290
2019-07-19T04:42:06,42.805,6.029,4330,1995,193.013,59.029,13.290
2019-07-19T04:45:06,42.805,6.029,4330,1995,192.980,59.019,13.290
2019-07-19T04:48:06,42.805,6.029,4330,1995,192.983,59.019,13.290
2019-07-19T04:51:06,42.805,6.029,4330,1995,192.984,59.020,13.290
2019-07-19T04:54:06,42.805,6.029,4330,1995,192.988,59.021,13.290
2019-07-19T04:57:06,42.805,6.029,4330,1995,192.954,59.011,13.290
2019-07-19T05:00:06,42.805,6.029,4330,1995,193.033,59.035,13.290
2019-07-19T05:03:06,42.805,6.029,4330,1995,193.031,59.034,13.290
2019-07-19T05:06:06,42.805,6.029,4330,1995,193.010,59.028,13.290
2019-07-19T05:09:06,42.805,6.029,4330,1995,193.015,59.030,13.290
2019-07-19T05:12:06,42.805,6.029,4330,1995,193.042,59.038,13.290
2019-07-19T05:15:06,42.805,6.029,4330,1995,193.091,59.053,13.291
2019-07-19T05:21:06,42.805,6.029,4330,1995,193.053,59.040,13.289
2019-07-19T05:24:06,42.805,6.029,4330,1995,192.979,59.019,13.290
2019-07-19T05:27:06,42.805,6.029,4330,1995,192.995,59.024,13.291
2019-07-19T05:30:06,42.805,6.029,4330,1995,192.945,59.009,13.291
2019-07-19T05:33:06,42.805,6.029,4330,1995,192.977,59.018,13.290
2019-07-19T05:36:06,42.805,6.029,4330,1995,193.018,59.031,13.291
2019-07-19T05:39:06,42.805,6.029,4330,1995,192.971,59.017,13.291
2019-07-19T05:42:06,42.805,6.029,4330,1995,193.031,59.035,13.290
2019-07-19T05:45:06,42.805,6.029,4330,1995,193.025,59.033,13.290
2019-07-19T05:48:06,42.805,6.029,4330,1995,193.060,59.043,13.290
2019-07-19T05:51:06,42.805,6.029,4330,1995,193.041,59.038,13.290
2019-07-19T05:54:06,42.805,6.029,4330,1995,193.102,59.056,13.290
2019-07-19T05:57:06,42.805,6.029,4330,1995,193.011,59.028,13.290
2019-07-19T06:00:06,42.805,6.029,4330,1995,193.052,59.041,13.290
2019-07-19T06:03:06,42.805,6.029,4330,1995,193.024,59.032,13.290
2019-07-19T06:06:06,42.805,6.029,4330,1995,193.046,59.039,13.290
2019-07-19T06:09:06,42.805,6.029,4330,1995,193.056,59.043,13.290
2019-07-19T06:12:06,42.805,6.029,4330,1995,193.029,59.034,13.290
2019-07-19T06:15:06,42.805,6.029,4330,1995,193.027,59.034,13.290
2019-07-19T06:18:06,42.805,6.029,4330,1995,193.046,59.039,13.290
2019-07-19T06:21:06,42.805,6.029,4330,1995,193.088,59.052,13.291
2019-07-19T06:24:06,42.805,6.029,4330,1995,193.041,59.038,13.291
2019-07-19T06:27:06,42.805,6.029,4330,1995,193.040,59.038,13.291
2019-07-19T06:30:06,42.805,6.029,4330,1995,193.036,59.036,13.290
2019-07-19T06:33:06,42.805,6.029,4330,1995,193.056,59.043,13.291
2019-07-19T06:36:06,42.805,6.029,4330,1995,193.023,59.033,13.291
2019-07-19T06:39:06,42.805,6.029,4330,1995,193.008,59.028,13.291
2019-07-19T06:42:06,42.805,6.029,4330,1995,193.030,59.035,13.291
2019-07-19T06:45:06,42.805,6.029,4330,1995,193.080,59.051,13.291
2019-07-19T06:48:06,42.805,6.029,4330,1995,193.107,59.059,13.291
2019-07-19T06:51:06,42.805,6.029,4330,1995,193.092,59.054,13.291
2019-07-19T06:54:06,42.805,6.029,4330,1995,193.127,59.065,13.291
2019-07-19T06:57:06,42.805,6.029,4330,1995,193.087,59.053,13.291
2019-07-19T07:00:06,42.805,6.029,4330,1995,193.090,59.054,13.291
2019-07-19T07:03:06,42.805,6.029,4330,1995,193.056,59.045,13.292
2019-07-19T07:06:06,42.805,6.029,4330,1995,193.099,59.057,13.292
2019-07-19T07:09:06,42.805,6.029,4330,1995,193.023,59.036,13.293
2019-07-19T07:12:06,42.805,6.029,4330,1995,193.047,59.042,13.292
2019-07-19T07:15:06,42.805,6.029,4330,1995,193.074,59.050,13.292
2019-07-19T07:18:06,42.805,6.029,4330,1995,193.113,59.062,13.292
2019-07-19T07:21:06,42.805,6.029,4330,1995,193.104,59.059,13.292
2019-07-19T07:24:06,42.805,6.029,4330,1995,193.105,59.060,13.293
2019-07-19T07:27:06,42.805,6.029,4330,1995,193.103,59.059,13.292
2019-07-19T07:30:06,42.805,6.029,4330,1995,193.120,59.065,13.292
2019-07-19T07:33:06,42.805,6.029,4330,1995,193.136,59.070,13.293
2019-07-19T07:36:06,42.805,6.029,4330,1995,193.022,59.035,13.293
2019-07-19T07:39:06,42.805,6.029,4330,1995,193.056,59.045,13.292
2019-07-19T07:42:06,42.805,6.029,4330,1995,193.047,59.042,13.292
2019-07-19T07:45:06,42.805,6.029,4330,1995,193.080,59.052,13.292
2019-07-19T07:48:06,42.805,6.029,4330,1995,193.114,59.063,13.292
2019-07-19T07:51:06,42.805,6.029,4330,1995,193.078,59.051,13.292
2019-07-19T07:57:06,42.805,6.029,4330,1995,193.080,59.047,13.288
2019-07-19T08:00:06,42.805,6.029,4330,1995,193.099,59.057,13.291
2019-07-19T08:03:06,42.805,6.029,4330,1995,193.086,59.054,13.292
2019-07-19T08:06:06,42.805,6.029,4330,1995,193.062,59.046,13.292
2019-07-19T08:09:06,42.805,6.029,4330,1995,193.088,59.054,13.292
2019-07-19T08:12:06,42.805,6.029,4330,1995,193.042,59.040,13.292
2019-07-19T08:15:06,42.805,6.029,4330,1995,193.062,59.047,13.293
2019-07-19T08:18:06,42.805,6.029,4330,1995,193.037,59.039,13.292
2019-07-19T08:21:06,42.805,6.029,4330,1995,193.057,59.044,13.292
2019-07-19T08:24:06,42.805,6.029,4330,1995,192.997,59.026,13.292
2019-07-19T08:27:06,42.805,6.029,4330,1995,193.051,59.043,13.292
2019-07-19T08:30:06,42.805,6.029,4330,1995,193.052,59.043,13.292
2019-07-19T08:33:06,42.805,6.029,4330,1995,193.100,59.058,13.292
2019-07-19T08:41:45,42.805,6.029,4330,1995,193.091,59.050,13.288
2019-07-19T08:44:45,42.805,6.029,4330,1995,193.046,59.041,13.291
2019-07-19T08:47:45,42.805,6.029,4330,1995,193.002,59.028,13.292
2019-07-19T08:50:45,42.805,6.029,4330,1995,193.021,59.034,13.292
2019-07-19T08:53:45,42.805,6.029,4330,1995,193.028,59.036,13.292
2019-07-19T08:56:45,42.805,6.029,4330,1995,193.061,59.046,13.292
2019-07-19T08:59:45,42.805,6.029,4330,1995,193.022,59.034,13.292
2019-07-19T09:02:45,42.805,6.029,4330,1995,193.003,59.028,13.291
2019-07-19T09:05:45,42.805,6.029,4330,1995,192.999,59.027,13.291
2019-07-19T09:08:45,42.805,6.029,4330,1995,193.016,59.032,13.292
2019-07-19T09:11:45,42.805,6.029,4330,1995,192.998,59.026,13.292
2019-07-19T09:14:45,42.805,6.029,4330,1995,193.049,59.041,13.291
2019-07-19T09:17:45,42.805,6.029,4330,1995,192.945,59.009,13.291
2019-07-19T09:20:45,42.805,6.029,4330,1995,193.017,59.031,13.291
2019-07-19T09:23:45,42.805,6.029,4330,1995,193.021,59.032,13.291
2019-07-19T09:26:45,42.805,6.029,4330,1995,192.965,59.015,13.291
2019-07-19T09:29:45,42.805,6.029,4330,1995,193.027,59.033,13.290
2019-07-19T09:32:45,42.805,6.029,4330,1995,193.004,59.027,13.290
2019-07-19T09:35:45,42.805,6.029,4330,1995,192.965,59.014,13.290
2019-07-19T09:38:45,42.805,6.029,4330,1995,192.901,58.995,13.290
2019-07-19T09:41:45,42.805,6.029,4330,1995,192.862,58.982,13.290
2019-07-19T09:44:45,42.805,6.029,4330,1995,193.008,59.027,13.290
2019-07-19T09:47:45,42.805,6.029,4330,1995,192.826,58.971,13.289
2019-07-19T09:50:45,42.805,6.029,4330,1995,192.851,58.979,13.290
2019-07-19T09:53:45,42.805,6.029,4330,1995,192.974,59.016,13.290
2019-07-19T09:56:45,42.805,6.029,4330,1995,192.945,59.008,13.290
2019-07-19T09:59:45,42.805,6.029,4330,1995,193.009,59.027,13.290
2019-07-19T10:02:45,42.805,6.029,4330,1995,193.010,59.028,13.290
2019-07-19T10:05:45,42.805,6.029,4330,1995,192.884,58.989,13.290
2019-07-19T10:08:45,42.805,6.029,4330,1995,192.940,59.006,13.290
2019-07-19T10:11:45,42.805,6.029,4330,1995,192.967,59.014,13.290
2019-07-19T10:14:45,42.805,6.029,4330,1995,192.908,58.996,13.290
2019-07-19T10:17:45,42.805,6.029,4330,1995,192.942,59.007,13.290
2019-07-19T10:20:45,42.805,6.029,4330,1995,192.944,59.008,13.290
2019-07-19T10:23:45,42.805,6.029,4330,1995,192.880,58.988,13.290
2019-07-19T10:26:45,42.805,6.029,4330,1995,192.848,58.978,13.290
2019-07-19T10:29:45,42.805,6.029,4330,1995,192.790,58.961,13.290
2019-07-19T10:32:45,42.805,6.029,4330,1995,192.839,58.976,13.291
2019-07-19T10:35:45,42.805,6.029,4330,1995,192.806,58.966,13.290
2019-07-19T10:38:45,42.805,6.029,4330,1995,192.867,58.985,13.291
2019-07-19T10:41:45,42.805,6.029,4330,1995,192.863,58.984,13.291
2019-07-19T10:44:45,42.805,6.029,4330,1995,192.837,58.975,13.290
2019-07-19T10:47:45,42.805,6.029,4330,1995,192.896,58.994,13.291
2019-07-19T10:50:45,42.805,6.029,4330,1995,192.912,59.000,13.291
2019-07-19T10:53:45,42.805,6.029,4330,1995,192.908,58.998,13.291
2019-07-19T10:56:45,42.805,6.029,4330,1995,193.015,59.030,13.291
2019-07-19T10:59:45,42.805,6.029,4330,1995,192.891,58.993,13.292
2019-07-19T11:02:45,42.805,6.029,4330,1995,192.745,58.949,13.291
2019-07-19T11:05:45,42.805,6.029,4330,1995,192.539,58.887,13.292
2019-07-19T11:08:45,42.805,6.029,4330,1995,192.648,58.919,13.292
2019-07-19T11:17:45,42.805,6.029,4330,1995,192.717,58.936,13.288
2019-07-19T11:20:45,42.805,6.029,4330,1995,192.774,58.956,13.290
2019-07-19T11:23:45,42.805,6.029,4330,1995,192.755,58.951,13.291
2019-07-19T11:26:45,42.805,6.029,4330,1995,192.749,58.949,13.291
2019-07-19T11:29:45,42.805,6.029,4330,1995,192.724,58.942,13.291
2019-07-19T11:32:45,42.805,6.029,4330,1995,192.759,58.952,13.291
2019-07-19T11:35:45,42.805,6.029,4330,1995,192.750,58.950,13.291
2019-07-19T11:38:45,42.805,6.029,4330,1995,192.731,58.945,13.292
2019-07-19T11:41:45,42.805,6.029,4330,1995,192.643,58.918,13.292
2019-07-19T11:44:45,42.805,6.029,4330,1995,192.707,58.937,13.291
2019-07-19T11:47:45,42.805,6.029,4330,1995,192.721,58.943,13.293
2019-07-19T11:50:45,42.805,6.029,4330,1995,192.711,58.939,13.292
2019-07-19T11:53:45,42.805,6.029,4330,1995,192.690,58.932,13.292
2019-07-19T11:56:45,42.805,6.029,4330,1995,192.617,58.909,13.291
2019-07-19T11:59:45,42.805,6.029,4330,1995,192.599,58.904,13.292
2019-07-19T12:02:45,42.805,6.029,4330,1995,192.649,58.920,13.292
2019-07-19T12:05:45,42.805,6.029,4330,1995,192.681,58.930,13.292
2019-07-19T12:08:45,42.805,6.029,4330,1995,192.651,58.920,13.292
2019-07-19T12:11:45,42.805,6.029,4330,1995,192.613,58.910,13.293
2019-07-19T12:14:45,42.805,6.029,4330,1995,192.542,58.887,13.292
2019-07-19T12:17:45,42.805,6.029,4330,1995,192.561,58.894,13.293
2019-07-19T12:20:45,42.805,6.029,4330,1995,192.583,58.899,13.292
2019-07-19T12:23:45,42.805,6.029,4330,1995,192.557,58.891,13.291
2019-07-19T12:26:45,42.805,6.029,4330,1995,192.645,58.919,13.292
2019-07-19T12:29:45,42.805,6.029,4330,1995,192.610,58.908,13.292
2019-07-19T12:32:45,42.805,6.029,4330,1995,192.633,58.915,13.292
2019-07-19T12:35:45,42.805,6.029,4330,1995,192.691,58.932,13.291
2019-07-19T12:38:45,42.805,6.029,4330,1995,192.621,58.910,13.291
2019-07-19T12:41:45,42.805,6.029,4330,1995,192.594,58.902,13.291
2019-07-19T12:44:45,42.805,6.029,4330,1995,192.656,58.921,13.291
2019-07-19T12:47:45,42.805,6.029,4330,1995,192.613,58.907,13.291
2019-07-19T12:50:45,42.805,6.029,4330,1995,192.622,58.910,13.291
2019-07-19T12:53:45,42.805,6.029,4330,1995,192.581,58.897,13.290
2019-07-19T12:56:45,42.805,6.029,4330,1995,192.573,58.894,13.290
2019-07-19T12:59:45,42.805,6.029,4330,1995,192.531,58.882,13.291
2019-07-19T13:02:45,42.805,6.029,4330,1995,192.544,58.886,13.291
2019-07-19T13:05:45,42.805,6.029,4330,1995,192.536,58.883,13.290
2019-07-19T13:08:45,42.805,6.029,4330,1995,192.534,58.883,13.291
2019-07-19T13:11:45,42.805,6.029,4330,1995,192.472,58.864,13.291
2019-07-19T13:14:45,42.805,6.029,4330,1995,192.462,58.861,13.290
2019-07-19T13:17:45,42.805,6.029,4330,1995,192.485,58.868,13.291
2019-07-19T13:20:45,42.805,6.029,4330,1995,192.591,58.900,13.290
2019-07-19T13:23:45,42.805,6.029,4330,1995,192.530,58.882,13.291
2019-07-19T13:26:45,42.805,6.029,4330,1995,192.546,58.887,13.291
2019-07-19T13:29:45,42.805,6.029,4330,1995,192.621,58.910,13.291
2019-07-19T13:32:45,42.805,6.029,4330,1995,192.498,58.875,13.293
2019-07-19T13:35:45,42.805,6.029,4330,1995,192.490,58.871,13.292
2019-07-19T13:38:45,42.805,6.029,4330,1995,192.481,58.868,13.291
2019-07-19T13:41:45,42.805,6.029,4330,1995,192.396,58.841,13.291
2019-07-19T13:44:45,42.805,6.029,4330,1995,192.390,58.840,13.291
2019-07-19T13:50:45,42.805,6.029,4330,1995,192.416,58.844,13.289
2019-07-19T13:53:45,42.805,6.029,4330,1995,192.366,58.830,13.289
2019-07-19T13:56:45,42.805,6.029,4330,1995,192.463,58.861,13.290
2019-07-19T13:59:45,42.805,6.029,4330,1995,192.512,58.876,13.290
2019-07-19T14:02:45,42.805,6.029,4330,1995,192.465,58.862,13.291
2019-07-19T14:05:45,42.805,6.029,4330,1995,192.493,58.870,13.290
2019-07-19T14:08:45,42.805,6.029,4330,1995,192.473,58.864,13.290
2019-07-19T14:11:45,42.805,6.029,4330,1995,192.357,58.829,13.291
2019-07-19T14:14:45,42.805,6.029,4330,1995,192.417,58.847,13.290
2019-07-19T14:17:45,42.805,6.029,4330,1995,192.421,58.848,13.291
2019-07-19T14:20:45,42.805,6.029,4330,1995,192.401,58.843,13.291
2019-07-19T14:23:45,42.805,6.029,4330,1995,192.459,58.860,13.291
2019-07-19T14:26:45,42.805,6.029,4330,1995,192.475,58.866,13.291
2019-07-19T14:29:45,42.805,6.029,4330,1995,192.419,58.849,13.292
2019-07-19T14:32:45,42.805,6.029,4330,1995,192.373,58.835,13.292
2019-07-19T14:35:45,42.805,6.029,4330,1995,192.370,58.833,13.291
2019-07-19T14:38:45,42.805,6.029,4330,1995,192.373,58.834,13.291
2019-07-19T14:41:45,42.805,6.029,4330,1995,192.436,58.855,13.292
2019-07-19T14:44:45,42.805,6.029,4330,1995,192.447,58.858,13.292
2019-07-19T14:47:45,42.805,6.029,4330,1995,192.372,58.836,13.293
2019-07-19T14:50:45,42.805,6.029,4330,1995,192.408,58.847,13.292
2019-07-19T14:53:45,42.805,6.029,4330,1995,192.316,58.820,13.293
2019-07-19T14:56:45,42.805,6.029,4330,1995,192.303,58.814,13.292
2019-07-19T14:59:45,42.805,6.029,4330,1995,192.256,58.801,13.293
2019-07-19T15:02:45,42.805,6.029,4330,1995,192.272,58.806,13.293
2019-07-19T15:05:45,42.805,6.029,4330,1995,192.349,58.829,13.293
2019-07-19T15:08:45,42.805,6.029,4330,1995,192.437,58.856,13.293
2019-07-19T15:11:45,42.805,6.029,4330,1995,192.456,58.862,13.293
2019-07-19T15:14:45,42.805,6.029,4330,1995,192.373,58.836,13.292
2019-07-19T15:17:45,42.805,6.029,4330,1995,192.369,58.836,13.293
2019-07-19T15:20:45,42.805,6.029,4330,1995,192.439,58.857,13.293
2019-07-19T15:23:45,42.805,6.029,4330,1995,192.396,58.845,13.294
2019-07-19T15:26:45,42.805,6.029,4330,1995,192.384,58.840,13.293
2019-07-19T15:29:45,42.805,6.029,4330,1995,192.325,58.823,13.293
2019-07-19T15:32:45,42.805,6.029,4330,1995,192.266,58.805,13.294
2019-07-19T15:35:45,42.805,6.029,4330,1995,192.380,58.840,13.294
2019-07-19T15:38:45,42.805,6.029,4330,1995,192.322,58.822,13.293
2019-07-19T15:41:45,42.805,6.029,4330,1995,192.344,58.827,13.292
2019-07-19T15:44:45,42.805,6.029,4330,1995,192.362,58.834,13.293
2019-07-19T15:47:45,42.805,6.029,4330,1995,192.388,58.841,13.293
2019-07-19T15:50:45,42.805,6.029,4330,1995,192.442,58.857,13.292
2019-07-19T15:53:45,42.805,6.029,4330,1995,192.435,58.855,13.292
2019-07-19T15:56:45,42.805,6.029,4330,1995,192.393,58.842,13.292
2019-07-19T15:59:45,42.805,6.029,4330,1995,192.406,58.846,13.293
2019-07-19T16:02:45,42.805,6.029,4330,1995,192.416,58.848,13.291
2019-07-19T16:05:45,42.805,6.029,4330,1995,192.453,58.860,13.292
2019-07-19T16:08:45,42.805,6.029,4330,1995,192.427,58.852,13.292
2019-07-19T16:11:45,42.805,6.029,4330,1995,192.367,58.833,13.291
2019-07-19T16:14:45,42.805,6.029,4330,1995,192.433,58.853,13.292
2019-07-19T16:17:45,42.805,6.029,4330,1995,192.346,58.827,13.292
2019-07-19T16:20:45,42.805,6.029,4330,1995,192.341,58.825,13.291
2019-07-19T16:26:45,42.805,6.029,4330,1995,192.366,58.832,13.291
2019-07-19T16:29:45,42.805,6.029,4330,1995,192.297,58.813,13.292
2019-07-19T16:32:45,42.805,6.029,4330,1995,192.195,58.782,13.292
2019-07-19T16:35:45,42.805,6.029,4330,1995,192.409,58.847,13.293
2019-07-19T16:38:45,42.805,6.029,4330,1995,192.397,58.843,13.292
2019-07-19T16:41:45,42.805,6.029,4330,1995,192.413,58.848,13.292
2019-07-19T16:44:45,42.805,6.029,4330,1995,192.278,58.807,13.292
2019-07-19T16:47:45,42.805,6.029,4330,1995,192.368,58.836,13.293
2019-07-19T16:50:45,42.805,6.029,4330,1995,192.383,58.840,13.293
2019-07-19T16:53:45,42.805,6.029,4330,1995,192.333,58.825,13.293
2019-07-19T16:56:45,42.805,6.029,4330,1995,192.391,58.840,13.291
2019-07-19T16:59:45,42.805,6.029,4330,1995,192.273,58.804,13.291
2019-07-19T17:02:45,42.805,6.029,4330,1995,192.217,58.789,13.293
2019-07-19T17:05:45,42.805,6.029,4330,1995,192.273,58.805,13.292
2019-07-19T17:08:45,42.805,6.029,4330,1995,192.255,58.799,13.292
2019-07-19T17:11:45,42.805,6.029,4330,1995,192.382,58.839,13.292
2019-07-19T17:14:45,42.805,6.029,4330,1995,192.363,58.833,13.292
2019-07-19T17:17:45,42.805,6.029,4330,1995,192.456,58.861,13.292
2019-07-19T17:20:45,42.805,6.029,4330,1995,192.393,58.841,13.292
2019-07-19T17:23:45,42.805,6.029,4330,1995,192.368,58.833,13.292
2019-07-19T17:26:45,42.805,6.029,4330,1995,192.339,58.824,13.291
2019-07-19T17:29:45,42.805,6.029,4330,1995,192.383,58.838,13.291
2019-07-19T17:32:45,42.805,6.029,4330,1995,192.419,58.849,13.291
2019-07-19T17:35:45,42.805,6.029,4330,1995,192.345,58.827,13.292
2019-07-19T17:38:45,42.805,6.029,4330,1995,192.302,58.813,13.291
2019-07-19T17:41:45,42.805,6.029,4330,1995,192.233,58.792,13.291
2019-07-19T17:44:45,42.805,6.029,4330,1995,192.334,58.822,13.291
2019-07-19T17:47:45,42.805,6.029,4330,1995,192.310,58.816,13.292
2019-07-19T17:50:45,42.805,6.029,4330,1995,192.194,58.783,13.294
2019-07-19T17:53:45,42.805,6.029,4330,1995,192.218,58.788,13.292
2019-07-19T17:56:45,42.805,6.029,4330,1995,192.282,58.807,13.292
2019-07-19T17:59:45,42.805,6.029,4330,1995,192.302,58.815,13.293
2019-07-19T18:02:45,42.805,6.029,4330,1995,192.261,58.802,13.293
2019-07-19T18:05:45,42.805,6.029,4330,1995,192.340,58.826,13.293
2019-07-19T18:08:45,42.805,6.029,4330,1995,192.276,58.807,13.292
2019-07-19T18:11:45,42.805,6.029,4330,1995,192.310,58.817,13.293
2019-07-19T18:14:45,42.805,6.029,4330,1995,192.370,58.835,13.293
2019-07-19T18:17:45,42.805,6.029,4330,1995,192.254,58.801,13.293
2019-07-19T18:20:45,42.805,6.029,4330,1995,192.295,58.815,13.294
2019-07-19T18:23:45,42.805,6.029,4330,1995,192.287,58.811,13.293
2019-07-19T18:26:45,42.805,6.029,4330,1995,192.415,58.847,13.291
2019-07-19T18:29:45,42.805,6.029,4330,1995,192.407,58.847,13.293
2019-07-19T18:32:45,42.805,6.029,4330,1995,192.321,58.821,13.293
2019-07-19T18:35:45,42.805,6.029,4330,1995,192.321,58.821,13.293